Location: Dodgeville
(42.9600°N, 90.1300°W)
Time: 20:48:26
(UTC-06:00)

Amateur Radio Satellites - All Passes

Search period start: 03 March 2015 20:18
Search period end: 04 March 2015 20:18
Location: Dodgeville, 42.9600°N, 90.1300°W

Satellite Date Start Highest point End Downlink Frequencies (MHz)
Time Altitude Azimuth
CANX-2 03 Mar 20:20:44 20:24:51 52° 260° (W) 20:28:59 2200.000
AISAT 03 Mar 20:22:22 20:22:46 10° 60° (ENE) 20:23:24 437.250
HUMSAT D 03 Mar 20:28:50 20:30:55 14° 65° (ENE) 20:33:09 437.325/437.525
VELOX 1 03 Mar 20:30:01 20:31:39 12° 61° (ENE) 20:33:30 145.980
FUNcube-1 03 Mar 20:31:13 20:34:51 27° 69° (ENE) 20:38:29 145.935
ZACube-1 03 Mar 20:32:48 20:36:30 29° 70° (ENE) 20:40:13 437.345
UKube-1 03 Mar 20:38:13 20:42:03 31° 69° (ENE) 20:45:56 .
CUTE 1.7 + AOD 2 03 Mar 20:39:28 20:43:22 35° 263° (W) 20:47:15 437.475
VERMONT LUNAR 03 Mar 20:41:13 20:44:32 40° 195° (SSW) 20:47:49 437.305
DELFI C3 03 Mar 20:44:15 20:48:11 58° 74° (ENE) 20:52:11 145.870
GOMX 1 03 Mar 20:52:20 20:57:06 31° 265° (W) 21:01:37 467.674
PHONESAT 2.4 03 Mar 20:52:58 20:56:31 51° 189° (S) 21:00:03 2401.200-2431.200
BRITE-PL 03 Mar 20:53:51 20:58:20 23° 268° (W) 21:02:33 437.365/2234.400
UWE-3 03 Mar 20:53:53 20:58:14 59° 74° (ENE) 21:02:29 435.000/436.395/437.385
PCSat 03 Mar 21:04:27 21:09:45 53° 305° (NW) 21:15:05 145.827
HO-68 03 Mar 21:09:39 21:15:49 30° 267° (W) 21:21:52 435.675
Oscar 11 03 Mar 21:19:39 21:23:46 44° 262° (W) 21:27:54 145.826/435.025
AAUSAT CUBESAT 2 03 Mar 21:19:46 21:23:01 21° 268° (W) 21:26:11 437.432
GONETS M04 03 Mar 21:20:52 21:29:17 59° 92° (E) 21:37:46
CINEMA 3 03 Mar 21:21:17 21:25:41 35° 263° (W) 21:29:52 145.822/145.860
DOVE 4 03 Mar 21:22:35 21:26:35 22° 268° (W) 21:30:19 437.250
COMPASS 1 03 Mar 21:23:49 21:26:39 17° 269° (W) 21:29:23 437.405
CUBEBUG 2 03 Mar 21:34:02 21:38:20 43° 262° (W) 21:42:30 437.445
ANTELSAT 03 Mar 21:36:30 21:38:49 15° 90° (E) 21:41:20 437.575/2403.000
DX 1 03 Mar 21:45:47 21:50:01 47° 260° (W) 21:54:17 434.975-435.025
50 SAT 03 Mar 21:46:41 21:50:38 67° 75° (ENE) 21:54:35 437.505
CUBEBUG 1 03 Mar 21:54:01 21:58:05 37° 70° (ENE) 22:02:13 437.445
AISAT 03 Mar 21:54:13 21:58:44 87° 76° (ENE) 22:03:16 437.250
HUMSAT D 03 Mar 22:02:11 22:06:19 56° 259° (W) 22:10:25 437.325/437.525
VELOX 1 03 Mar 22:03:11 22:07:41 78° 257° (WSW) 22:12:12 145.980
NANOSAT C BR1 03 Mar 22:05:50 22:08:25 16° 90° (E) 22:11:09 145.865
FUNcube-1 03 Mar 22:07:23 22:11:10 28° 265° (W) 22:14:50 145.935
ZACube-1 03 Mar 22:09:10 22:12:53 26° 265° (W) 22:16:30 437.345
UKube-1 03 Mar 22:14:37 22:18:15 25° 266° (W) 22:21:49 .
RS-15 03 Mar 22:17:35 22:27:33 45° 111° (ESE) 22:37:47 29.354- 29.394
VERMONT LUNAR 03 Mar 22:20:02 22:21:55 14° 210° (SSW) 22:23:45 437.305
TISAT 1 03 Mar 22:22:22 22:25:10 18° 65° (ENE) 22:28:06 437.305
DELFI C3 03 Mar 22:22:22 22:23:52 11° 272° (W) 22:25:08 145.870
SPROUT 03 Mar 22:22:32 22:25:36 20° 66° (ENE) 22:28:46 437.525
ESTCUBE 1 03 Mar 22:23:17 22:27:48 82° 76° (ENE) 22:32:23 437.505/2401.250
PHONESAT 2.4 03 Mar 22:31:43 22:34:35 22° 205° (SSW) 22:37:24 2401.200-2431.200
UNISAT 6 03 Mar 22:32:56 22:37:11 59° 101° (E) 22:41:29 437.425
UWE-3 03 Mar 22:32:58 22:35:12 13° 271° (W) 22:37:12 435.000/436.395/437.385
QB50P1 03 Mar 22:38:01 22:41:56 36° 97° (E) 22:45:51 145.935-145.965
BUGSAT 1 03 Mar 22:42:11 22:45:49 29° 95° (E) 22:49:26 437.445
QB50P2 03 Mar 22:42:14 22:46:15 41° 98° (E) 22:50:16 145.880/145.840
PCSat 03 Mar 22:52:20 22:54:32 12° 328° (NNW) 22:56:34 145.827
DUCHIFAT 1 03 Mar 22:56:07 23:00:18 57° 101° (E) 23:04:26 145.980
DANDE 03 Mar 22:57:10 23:02:27 27° 95° (E) 23:06:50 436.750
TIGRISAT 03 Mar 22:57:25 23:01:42 76° 284° (WNW) 23:06:01 435.000
ANTELSAT 03 Mar 23:11:48 23:16:00 51° 287° (WNW) 23:20:13 437.575/2403.000
ITUPSAT 1 03 Mar 23:12:06 23:13:26 11° 59° (ENE) 23:15:01 437.325
POPSAT HIP 1 03 Mar 23:17:41 23:21:56 80° 284° (WNW) 23:26:08 437.405
POLYITAN 1 03 Mar 23:17:49 23:22:04 78° 284° (WNW) 23:26:16 437.675
GONETS M04 03 Mar 23:19:03 23:26:42 32° 293° (WNW) 23:34:11
CUSAT 1 03 Mar 23:19:05 23:24:58 48° 97° (E) 23:29:27 437.405
CUBEBUG 1 03 Mar 23:31:06 23:34:36 22° 267° (W) 23:38:02 437.445
NANOSAT C BR1 03 Mar 23:40:32 23:44:35 44° 288° (WNW) 23:48:35 145.865
TISAT 1 03 Mar 23:56:34 00:00:41 45° 261° (W) 00:04:49 437.305
SPROUT 03 Mar 23:57:20 00:01:26 41° 262° (W) 00:05:34 437.525
SWISSCUBE 04 Mar 00:09:36 00:14:06 42° 70° (ENE) 00:18:38 437.505
UNISAT 6 04 Mar 00:11:15 00:13:35 14° 296° (WNW) 00:15:45 437.425
QB50P1 04 Mar 00:14:26 00:17:37 21° 293° (WNW) 00:20:43 145.935-145.965
BUGSAT 1 04 Mar 00:17:49 00:21:13 24° 292° (WNW) 00:24:30 437.445
BEESAT 04 Mar 00:17:54 00:22:27 47° 71° (ENE) 00:27:05 436.000
Oscar 19 04 Mar 00:18:39 00:21:15 14° 88° (E) 00:24:06 437.125/150
QB50P2 04 Mar 00:18:55 00:21:55 19° 294° (WNW) 00:24:47 145.880/145.840
SO-50 04 Mar 00:22:48 00:26:16 22° 112° (ESE) 00:29:55 436.795
RS-15 04 Mar 00:29:01 00:39:44 57° 314° (NW) 00:50:39 29.354- 29.394
DUCHIFAT 1 04 Mar 00:33:27 00:35:44 14° 296° (WNW) 00:37:50 145.980
DANDE 04 Mar 00:39:32 00:45:46 43° 283° (WNW) 00:50:30 436.750
ITUPSAT 1 04 Mar 00:45:52 00:50:40 87° 75° (ENE) 00:55:31 437.325
BEESAT 3 04 Mar 00:54:29 00:58:19 35° 48° (NE) 01:02:07 437.485
CUSAT 1 04 Mar 01:03:30 01:07:51 21° 287° (WNW) 01:11:18 437.405
BEESAT 2 04 Mar 01:21:24 01:25:31 55° 53° (NE) 01:29:34 435.950
YUBILEINY 04 Mar 01:21:40 01:27:55 22° 60° (ENE) 01:34:31 435.215
AIST 2 04 Mar 01:26:34 01:30:17 28° 46° (NE) 01:33:57 435.215
Gurwin Techsat 1B 04 Mar 01:38:28 01:42:25 21° 91° (E) 01:46:30 435.225
KKS-1 04 Mar 01:44:22 01:48:49 71° 75° (ENE) 01:53:18 437.445
STARS 04 Mar 01:47:43 01:52:00 50° 72° (ENE) 01:56:18 437.465
SWISSCUBE 04 Mar 01:48:28 01:52:11 22° 268° (W) 01:55:48 437.505
Oscar 19 04 Mar 01:56:07 02:01:14 71° 286° (WNW) 02:06:20 437.125/150
BEESAT 04 Mar 01:57:08 02:00:38 19° 269° (W) 02:03:59 436.000
ITAMSAT 1 04 Mar 01:57:36 02:02:31 41° 98° (E) 02:07:26 435.822/435.867
SO-50 04 Mar 02:02:01 02:06:30 48° 310° (NW) 02:11:10 436.795
M-CUBED/EXP-1 PRIME 04 Mar 02:08:30 02:08:44 10° 57° (ENE) 02:09:07 437.505
ITUPSAT 1 04 Mar 02:28:54 02:29:21 10° 274° (W) 02:29:29 437.325
BEESAT 3 04 Mar 02:32:54 02:36:16 24° 246° (WSW) 02:39:32 437.485
RS-15 04 Mar 02:46:25 02:55:15 26° 345° (NNW) 03:04:12 29.354- 29.394
BEESAT 2 04 Mar 03:00:49 03:03:19 15° 249° (WSW) 03:05:37 435.950
AIST 2 04 Mar 03:05:03 03:08:57 34° 244° (WSW) 03:12:45 435.215
MOZHAYETS 4 04 Mar 03:06:40 03:10:25 26° 68° (ENE) 03:14:17
JAS-2 04 Mar 03:08:45 03:14:13 22° 88° (E) 03:20:08 435.910
YUBILEINY 04 Mar 03:17:15 03:26:09 87° 262° (W) 03:34:59 435.215
Gurwin Techsat 1B 04 Mar 03:17:35 03:22:45 51° 289° (WNW) 03:27:52 435.225
AO-7 04 Mar 03:20:22 03:27:34 33° 95° (E) 03:34:54 29.400- 29.500
KKS-1 04 Mar 03:24:28 03:26:04 11° 273° (W) 03:27:24 437.445
STARS 04 Mar 03:25:59 03:28:48 16° 269° (W) 03:31:28 437.465
ITAMSAT 1 04 Mar 03:37:29 03:41:52 27° 295° (WNW) 03:46:07 435.822/435.867
HORYU 2 04 Mar 03:38:27 03:42:56 82° 103° (ESE) 03:47:24 437.375
M-CUBED/EXP-1 PRIME 04 Mar 03:39:59 03:43:14 55° 254° (WSW) 03:46:39 437.505
AUBIESAT-1 04 Mar 03:40:37 03:43:53 63° 253° (WSW) 03:47:21 437.475
SO-50 04 Mar 03:46:48 03:48:20 11° 332° (NNW) 03:49:43 436.795
PCSat 04 Mar 04:08:29 04:13:00 26° 45° (NE) 04:17:33 145.827
MOZHAYETS 4 04 Mar 04:43:28 04:47:35 32° 265° (W) 04:51:41
JAS-2 04 Mar 04:52:29 04:59:58 80° 286° (WNW) 05:07:50 435.910
RS-15 04 Mar 05:03:18 05:12:28 28° 20° (NNE) 05:22:06 29.354- 29.394
CUBESAT XI-V 04 Mar 05:09:14 05:13:34 39° 71° (ENE) 05:17:59 437.345
AO-7 04 Mar 05:12:43 05:20:50 59° 294° (WNW) 05:28:51 29.400- 29.500
PRISM 04 Mar 05:14:51 05:18:48 45° 72° (ENE) 05:22:49 437.425
YUBILEINY 04 Mar 05:16:13 05:21:50 18° 282° (WNW) 05:26:57 435.215
HORYU 2 04 Mar 05:17:30 05:19:02 11° 299° (WNW) 05:20:21 437.375
Cubesat XI-IV 04 Mar 05:36:21 05:40:55 28° 94° (E) 05:45:31 437.490
CUTE-I 04 Mar 05:44:42 05:49:30 33° 95° (E) 05:54:19 437.470
PCSat 04 Mar 05:51:28 05:56:47 55° 245° (WSW) 06:02:02 145.827
STRAND 1 04 Mar 05:51:43 05:56:50 67° 73° (ENE) 06:01:59 437.568
JAS-2 04 Mar 06:39:13 06:44:09 19° 302° (WNW) 06:48:57 435.910
CUBESAT XI-V 04 Mar 06:47:26 06:51:12 23° 268° (W) 06:54:52 437.345
AIST 1 04 Mar 06:47:32 06:51:52 68° 96° (E) 06:56:15
PRISM 04 Mar 06:52:00 06:54:37 16° 269° (W) 06:57:05 437.425
AO-7 04 Mar 07:07:49 07:12:04 15° 315° (NW) 07:15:55 29.400- 29.500
Cubesat XI-IV 04 Mar 07:16:08 07:21:09 39° 292° (WNW) 07:26:04 437.490
RS-15 04 Mar 07:16:22 07:27:40 65° 49° (NE) 07:39:32 29.354- 29.394
ISS 04 Mar 07:16:43 07:18:18 13° 132° (SE) 07:19:59 145.825
BRITE-PL 04 Mar 07:21:00 07:22:34 12° 86° (E) 07:24:21 437.365/2234.400
CUTE-I 04 Mar 07:24:46 07:29:35 34° 293° (WNW) 07:34:19 437.470
GONETS M04 04 Mar 07:30:08 07:37:31 31° 66° (ENE) 07:45:08
STRAND 1 04 Mar 07:33:31 07:36:37 15° 271° (W) 07:39:29 437.568
SEEDS 04 Mar 08:00:20 08:02:57 16° 90° (E) 08:05:44 437.485
CANX-2 04 Mar 08:05:38 08:09:06 24° 94° (E) 08:12:37 2200.000
CUTE 1.7 + AOD 2 04 Mar 08:23:40 08:27:34 34° 96° (E) 08:31:29 437.475
TIGRISAT 04 Mar 08:23:57 08:25:09 11° 62° (ENE) 08:26:34 435.000
AIST 1 04 Mar 08:28:29 08:30:09 12° 295° (WNW) 08:31:36
HO-68 04 Mar 08:34:48 08:41:48 53° 100° (E) 08:48:48 435.675
O/OREOS (USA 219) 04 Mar 08:35:00 08:39:20 46° 108° (ESE) 08:43:45 437.305
ANTELSAT 04 Mar 08:37:01 08:39:35 16° 65° (ENE) 08:42:17 437.575/2403.000
ISS 04 Mar 08:51:09 08:54:22 77° 327° (NNW) 08:57:36 145.825
SO-50 04 Mar 08:52:21 08:56:41 30° 44° (NE) 09:01:05 436.795
GOMX 1 04 Mar 08:53:16 08:57:40 79° 102° (ESE) 09:01:50 467.674
BRITE-PL 04 Mar 08:57:17 09:01:48 62° 286° (WNW) 09:05:59 437.365/2234.400
NANOSAT C BR1 04 Mar 09:00:03 09:02:29 15° 64° (ENE) 09:05:04 145.865
AAUSAT CUBESAT 2 04 Mar 09:00:57 09:05:04 54° 99° (E) 09:09:12 437.432
COMPASS 1 04 Mar 09:04:53 09:09:05 70° 101° (ESE) 09:13:17 437.405
Oscar 11 04 Mar 09:06:12 09:09:59 30° 95° (E) 09:13:50 145.826/435.025
CINEMA 3 04 Mar 09:15:10 09:19:13 48° 99° (E) 09:23:15 145.822/145.860
DOVE 4 04 Mar 09:19:57 09:24:13 77° 284° (WNW) 09:28:21 437.250
CUBEBUG 2 04 Mar 09:24:22 09:28:08 33° 96° (E) 09:31:56 437.445
GONETS M04 04 Mar 09:26:27 09:35:03 63° 267° (W) 09:43:39
RS-15 04 Mar 09:29:17 09:39:44 41° 250° (WSW) 09:50:20 29.354- 29.394
QB50P1 04 Mar 09:31:49 09:35:36 32° 70° (ENE) 09:39:26 145.935-145.965
UNISAT 6 04 Mar 09:32:52 09:37:10 59° 74° (ENE) 09:41:26 437.425
BUGSAT 1 04 Mar 09:33:20 09:36:50 25° 68° (ENE) 09:40:23 437.445
DX 1 04 Mar 09:33:36 09:37:18 27° 95° (E) 09:41:02 434.975-435.025
SEEDS 04 Mar 09:35:01 09:39:03 44° 288° (WNW) 09:43:05 437.485
QB50P2 04 Mar 09:36:09 09:40:03 36° 71° (ENE) 09:44:01 145.880/145.840
CANX-2 04 Mar 09:41:19 09:45:04 30° 290° (WNW) 09:48:47 2200.000
AISAT 04 Mar 09:45:44 09:48:20 16° 90° (E) 09:51:06 437.250
HUMSAT D 04 Mar 09:46:16 09:49:20 21° 93° (E) 09:52:31 437.325/437.525
DUCHIFAT 1 04 Mar 09:49:26 09:53:32 48° 73° (ENE) 09:57:41 145.980
VELOX 1 04 Mar 09:54:02 09:57:06 19° 91° (E) 10:00:18 145.980
FUNcube-1 04 Mar 09:54:19 09:58:21 48° 99° (E) 10:02:24 145.935
ZACube-1 04 Mar 09:56:12 10:00:17 51° 100° (E) 10:04:22 437.345
TIGRISAT 04 Mar 09:57:00 10:01:24 78° 256° (WSW) 10:05:44 435.000
CUSAT 1 04 Mar 09:58:05 09:59:48 16° 72° (ENE) 10:01:37 437.405
DELFI C3 04 Mar 09:58:17 10:02:24 89° 285° (WNW) 10:06:30 145.870
CUTE 1.7 + AOD 2 04 Mar 10:00:01 10:03:21 22° 292° (WNW) 10:06:34 437.475
UKube-1 04 Mar 10:00:32 10:04:47 50° 100° (E) 10:09:00 .
POPSAT HIP 1 04 Mar 10:11:09 10:15:28 86° 76° (ENE) 10:19:46 437.405
POLYITAN 1 04 Mar 10:11:34 10:15:52 88° 80° (E) 10:20:11 437.675
ANTELSAT 04 Mar 10:11:45 10:16:03 52° 260° (W) 10:20:17 437.575/2403.000
O/OREOS (USA 219) 04 Mar 10:15:31 10:19:03 21° 307° (NW) 10:22:30 437.305
ESTCUBE 1 04 Mar 10:16:27 10:19:16 16° 90° (E) 10:22:15 437.505/2401.250
UWE-3 04 Mar 10:19:23 10:23:32 70° 285° (WNW) 10:27:40 435.000/436.395/437.385
HO-68 04 Mar 10:23:00 10:29:18 33° 298° (WNW) 10:35:28 435.675
ISS 04 Mar 10:28:37 10:31:12 21° 347° (NNW) 10:33:46 145.825
SO-50 04 Mar 10:32:44 10:37:24 42° 243° (WSW) 10:42:01 436.795
NANOSAT C BR1 04 Mar 10:33:47 10:37:59 53° 260° (W) 10:42:11 145.865
GOMX 1 04 Mar 10:34:11 10:35:10 11° 300° (WNW) 10:35:56 467.674
AAUSAT CUBESAT 2 04 Mar 10:37:58 10:40:20 15° 295° (WNW) 10:42:34 437.432
Oscar 11 04 Mar 10:42:29 10:46:07 26° 292° (WNW) 10:49:40 145.826/435.025
COMPASS 1 04 Mar 10:42:41 10:44:18 12° 297° (WNW) 10:45:43 437.405
CINEMA 3 04 Mar 10:53:35 10:56:07 15° 295° (WNW) 10:58:30 145.822/145.860
50 SAT 04 Mar 10:59:09 11:03:07 82° 284° (WNW) 11:07:05 437.505
CUBEBUG 2 04 Mar 11:01:31 11:04:42 21° 293° (WNW) 11:07:49 437.445
QB50P1 04 Mar 11:08:04 11:11:33 23° 266° (W) 11:14:58 145.935-145.965
BUGSAT 1 04 Mar 11:08:25 11:12:13 30° 264° (W) 11:16:00 437.445
DX 1 04 Mar 11:09:44 11:13:33 29° 292° (WNW) 11:17:16 434.975-435.025
UNISAT 6 04 Mar 11:12:16 11:14:25 13° 271° (W) 11:16:20 437.425
QB50P2 04 Mar 11:12:49 11:16:07 21° 267° (W) 11:19:19 145.880/145.840
CUBEBUG 1 04 Mar 11:18:02 11:22:27 65° 101° (E) 11:26:47 437.445
AISAT 04 Mar 11:21:00 11:25:20 51° 287° (WNW) 11:29:36 437.250
DANDE 04 Mar 11:21:26 11:23:46 27° 265° (W) 11:26:03 436.750
HUMSAT D 04 Mar 11:21:31 11:25:15 33° 289° (WNW) 11:28:55 437.325/437.525
DUCHIFAT 1 04 Mar 11:27:04 11:29:43 15° 270° (W) 11:32:13 145.980
GONETS M04 04 Mar 11:28:01 11:30:18 11° 286° (WNW) 11:31:51
VELOX 1 04 Mar 11:29:43 11:33:57 43° 289° (WNW) 11:38:07 145.980
FUNcube-1 04 Mar 11:31:50 11:34:23 16° 295° (WNW) 11:36:47 145.935
ZACube-1 04 Mar 11:33:54 11:36:18 15° 295° (WNW) 11:38:34 437.345
Oscar 19 04 Mar 11:35:56 11:39:57 24° 65° (ENE) 11:44:05 437.125/150
UKube-1 04 Mar 11:37:44 11:40:36 17° 296° (WNW) 11:43:18 .
TISAT 1 04 Mar 11:40:49 11:44:20 25° 94° (E) 11:47:53 437.305
CUSAT 1 04 Mar 11:42:12 11:42:31 10° 268° (W) 11:42:43 437.405
SPROUT 04 Mar 11:43:18 11:47:07 31° 96° (E) 11:50:56 437.525
ESTCUBE 1 04 Mar 11:52:04 11:56:30 51° 288° (WNW) 12:00:55 437.505/2401.250
ISS 04 Mar 12:06:05 12:08:26 18° 7° (N) 12:10:48 145.825
BEESAT 04 Mar 12:19:46 12:21:03 11° 87° (E) 12:22:38 436.000
AO-7 04 Mar 12:34:12 12:36:57 12° 42° (NE) 12:40:09 29.400- 29.500
ITUPSAT 1 04 Mar 12:46:28 12:50:05 21° 92° (E) 12:53:48 437.325
CUBEBUG 1 04 Mar 12:56:04 12:58:20 14° 297° (WNW) 13:00:25 437.445
Gurwin Techsat 1B 04 Mar 13:00:12 13:05:00 37° 68° (ENE) 13:09:53 435.225
Oscar 19 04 Mar 13:14:11 13:19:05 44° 261° (W) 13:24:00 437.125/150
ITAMSAT 1 04 Mar 13:16:19 13:21:30 68° 73° (ENE) 13:26:44 435.822/435.867
TISAT 1 04 Mar 13:16:29 13:20:09 28° 291° (WNW) 13:23:44 437.305
SPROUT 04 Mar 13:19:35 13:23:07 24° 292° (WNW) 13:26:33 437.525
KKS-1 04 Mar 13:36:37 13:38:30 13° 88° (E) 13:40:37 437.445
ISS 04 Mar 13:42:19 13:45:27 44° 26° (NNE) 13:48:34 145.825
SWISSCUBE 04 Mar 13:46:30 13:51:21 89° 285° (WNW) 13:56:11 437.505
BEESAT 04 Mar 13:54:47 13:59:37 81° 285° (WNW) 14:04:25 436.000
AO-7 04 Mar 14:20:04 14:27:57 50° 63° (ENE) 14:35:54 29.400- 29.500
ITUPSAT 1 04 Mar 14:23:38 14:28:13 43° 290° (WNW) 14:32:46 437.325
YUBILEINY 04 Mar 14:25:23 14:31:27 23° 81° (E) 14:37:56 435.215
HORYU 2 04 Mar 14:37:36 14:42:02 84° 75° (ENE) 14:46:29 437.375
Gurwin Techsat 1B 04 Mar 14:40:25 14:45:04 30° 266° (W) 14:49:40 435.225
ITAMSAT 1 04 Mar 14:58:27 15:01:36 15° 271° (W) 15:04:32 435.822/435.867
JAS-2 04 Mar 15:06:13 15:11:34 49° 69° (ENE) 15:17:36 435.910
KKS-1 04 Mar 15:11:15 15:15:40 62° 286° (WNW) 15:20:02 437.445
STARS 04 Mar 15:12:56 15:17:20 89° 103° (ESE) 15:21:43 437.465
ISS 04 Mar 15:19:00 15:21:45 25° 223° (SW) 15:24:27 145.825
SWISSCUBE 04 Mar 15:26:49 15:28:34 12° 300° (WNW) 15:30:04 437.505
BEESAT 04 Mar 15:35:48 15:36:45 10° 301° (WNW) 15:37:26 436.000
AO-7 04 Mar 16:13:11 16:20:57 40° 263° (W) 16:28:36 29.400- 29.500
YUBILEINY 04 Mar 16:18:39 16:27:24 79° 279° (W) 16:36:16 435.215
BEESAT 3 04 Mar 16:26:33 16:30:29 48° 119° (ESE) 16:34:31 437.485
MOZHAYETS 4 04 Mar 16:37:06 16:41:39 55° 99° (E) 16:46:14
VERMONT LUNAR 04 Mar 16:40:40 16:43:38 26° 159° (SSE) 16:46:38 437.305
JAS-2 04 Mar 16:52:32 16:57:08 25° 271° (W) 17:02:00 435.910
STARS 04 Mar 16:52:38 16:53:11 10° 300° (WNW) 16:53:30 437.465
BEESAT 2 04 Mar 16:54:15 16:58:22 82° 123° (ESE) 17:02:34 435.950
M-CUBED/EXP-1 PRIME 04 Mar 16:54:18 16:58:37 89° 285° (WNW) 17:03:14 437.505
AUBIESAT-1 04 Mar 16:54:27 16:58:46 83° 108° (ESE) 17:03:23 437.475
AIST 1 04 Mar 16:54:42 16:57:50 19° 69° (ENE) 17:01:05
Cubesat XI-IV 04 Mar 16:59:04 17:04:13 51° 71° (ENE) 17:09:27 437.490
PHONESAT 2.4 04 Mar 16:59:41 17:02:29 21° 155° (SSE) 17:05:19 2401.200-2431.200
AIST 2 04 Mar 17:03:35 17:07:32 39° 117° (ESE) 17:11:34 435.215
O/OREOS (USA 219) 04 Mar 17:06:12 17:08:27 14° 48° (NE) 17:10:52 437.305
CUTE-I 04 Mar 17:07:18 17:12:33 59° 72° (ENE) 17:17:52 437.470
STRAND 1 04 Mar 18:02:15 18:06:03 21° 92° (E) 18:09:58 437.568
BEESAT 3 04 Mar 18:05:40 18:08:51 21° 318° (NW) 18:12:01 437.485
MOZHAYETS 4 04 Mar 18:15:28 18:18:31 17° 296° (WNW) 18:21:25
VERMONT LUNAR 04 Mar 18:17:48 18:21:14 55° 175° (S) 18:24:40 437.305
YUBILEINY 04 Mar 18:20:27 18:26:04 17° 304° (NW) 18:31:16 435.215
GOMX 1 04 Mar 18:26:40 18:28:58 13° 62° (ENE) 18:31:27 467.674
BRITE-PL 04 Mar 18:30:55 18:35:02 22° 66° (ENE) 18:39:09 437.365/2234.400
AUBIESAT-1 04 Mar 18:31:20 18:33:12 12° 302° (WNW) 18:34:55 437.475
AIST 1 04 Mar 18:31:36 18:35:44 39° 268° (W) 18:39:47
M-CUBED/EXP-1 PRIME 04 Mar 18:31:41 18:33:04 11° 302° (WNW) 18:34:16 437.505
PRISM 04 Mar 18:31:50 18:36:04 68° 101° (ESE) 18:40:16 437.425
BEESAT 2 04 Mar 18:34:40 18:37:10 15° 323° (NW) 18:39:33 435.950
PHONESAT 2.4 04 Mar 18:37:00 18:40:32 51° 171° (S) 18:44:05 2401.200-2431.200
Cubesat XI-IV 04 Mar 18:40:30 18:44:40 22° 268° (W) 18:48:43 437.490
CUBESAT XI-V 04 Mar 18:42:03 18:46:49 86° 107° (ESE) 18:51:30 437.345
AIST 2 04 Mar 18:42:39 18:46:17 26° 315° (NW) 18:49:54 435.215
O/OREOS (USA 219) 04 Mar 18:43:57 18:48:34 80° 248° (WSW) 18:53:07 437.305
CUTE-I 04 Mar 18:49:19 18:53:07 19° 270° (W) 18:56:45 437.470
DOVE 4 04 Mar 18:50:43 18:53:23 15° 64° (ENE) 18:56:12 437.250
PCSat 04 Mar 18:52:53 18:56:08 17° 106° (ESE) 18:59:36 145.827
SEEDS 04 Mar 18:54:27 18:56:32 14° 64° (ENE) 18:58:47 437.485
CANX-2 04 Mar 19:00:07 19:03:11 21° 67° (ENE) 19:06:23 2200.000
HO-68 04 Mar 19:04:18 19:10:54 43° 65° (ENE) 19:17:36 435.675
CUTE 1.7 + AOD 2 04 Mar 19:17:48 19:21:23 28° 70° (ENE) 19:25:02 437.475
STRAND 1 04 Mar 19:40:36 19:45:34 49° 290° (WNW) 19:50:30 437.568
UWE-3 04 Mar 19:44:22 19:45:35 11° 63° (ENE) 19:47:00 435.000/436.395/437.385
AAUSAT CUBESAT 2 04 Mar 19:52:54 19:56:47 41° 72° (ENE) 20:00:43 437.432
VERMONT LUNAR 04 Mar 19:55:35 19:58:56 46° 192° (SSW) 20:02:18 437.305
COMPASS 1 04 Mar 19:57:08 20:01:09 53° 74° (ENE) 20:05:14 437.405
GOMX 1 04 Mar 20:01:11 20:06:33 88° 257° (WSW) 20:11:40 467.674
Oscar 11 04 Mar 20:02:09 20:05:43 26° 69° (ENE) 20:09:22 145.826/435.025
PRISM 04 Mar 20:09:12 20:11:04 12° 298° (WNW) 20:12:46 437.425
